Showing default

IRIDIUM 125, 42964

Orbit data source: Space-Track

IRIDIUM 125, 42964 is a payload satellite owned by Iridium (US) in LEO that was launched on Mon, 09 Oct 2017 UTC via an FALCON 9 launch vehicle from the Air Force Western Test Range (AFWTR). Payload-class satellites include a variety of spacecraft equipped with specific instruments for various scientific and technological missions. These include communications satellites like Starlink; space stations such as the ISS; scientific satellites like the Hubble; Earth observation satellites from companies like Planet Labs, Umbra, and HawkEye 360; GPS; miniature CubeSats for education and research; and military/defense satellites.

Loading next visibility...
Identifier
42964, 2017-061K
Orbit
LEO
Country
Flag of USUS
Related business
Manufacturer
OATK SSG Gilbert
Mission
Operational Commercial Communications
Bus & Motor
ELITEBUS, Unknown motor
Mass
860 kg wet, 700 kg dry
Launch date (UTC)
2017-10-09 (8 years ago)
Launch vehicle
FALCON 9
Launch site
Air Force Western Test Range (AFWTR)
Object type
Payload
Rocket body
Debris
Shape & HBR
Trap Box + 2 Pan, 4.8 m
Radar Cross Section
10.154 m², Large (>1 m²)

Expand to show TLE details & history
Last TLE update: 9 hours ago

TLE from 9 hours ago
0 IRIDIUM 125
1 42964U 17061K   25307.75535450  .00000001  00000-0 -68157-5 0  9995
2 42964  86.3944 119.6358 0002086  74.0235 286.1190 14.34217503422545
Epoch: 2025-11-03T18:07Z
TLE epoch observation values (Epoch: 2025-11-03T18:07:42.628Z)
Latitude
-0.00009°
Longitude
164.456°
Altitude
780.305 km
Speed
7.464 km/s
True Right ascension
07h 58m 32s
True Declination
0° 00' 00"
Sunlit
Object was in daylight at epoch
Visualization orbit readout
Latitude
Unknown
Longitude
Unknown
Altitude
Unknown
Speed
Unknown
Apparent Right ascension
Unknown
Apparent Declination
Unknown
Sunlit
N/A
Visualization observer readout
Local Sidereal Time
22:38:17
Azimuth
Unknown
Elevation
Unknown
Doppler factor
Unknown
Orbital elements
Apogee altitude
776.125 km
Perigee altitude
773.14 km
Semi-major axis
7,152.77 km
Eccentricity
0.00021
Inclination
86.3944°
RAAN
119.6358°
Arg. of periapsis
74.0235°
True anomaly
286.09603°
Mean anomaly
286.119°
Eccentric anomaly
286.10752°
Mean motion
3.58783 °/min
Orbital period
100.34 mins
BSTAR
-0.0000068157
Loading maneuver chart data...
Computing Atmospheric mass density...
Loading historical data...
Loading historical data...
Loading historical data...
Loading historical data...
Loading historical data...
Loading historical data...
Loading historical data...

Documentation

Showing up to 5 results
|